Overview Statistics Trail Chart Weather Telemetry Raw packets
 

This is the latest recevied weather packets stored in our database for station/object KC9DRE. If no packets are shown the sender has not sent any weather packets the latest 10 day(s).

<< 37 38 39 40 41 42 43 >>
Time Temp. Humidity Pressure Rain* Wind** Luminosity Snow
1777669183 15.56° C 46% 1015.5 hPa 0 mm - 530 W/m² -
1777668880 15° C 46% 1015.4 hPa 0 mm - 612 W/m² -
1777668578 15° C 43% 1015.6 hPa 0 mm - 298 W/m² -
1777668273 15° C 44% 1015.7 hPa 0 mm - 171 W/m² -
1777667970 15° C 45% 1015.7 hPa 0 mm - 216 W/m² -
1777667666 16.11° C 42% 1015.7 hPa 0 mm - 182 W/m² -
1777667364 16.67° C 40% 1015.6 hPa 0 mm - 188 W/m² -
1777667061 16.11° C 39% 1015.4 hPa 0 mm - 455 W/m² -
1777666757 17.22° C 38% 1015.4 hPa 0 mm - 188 W/m² -
1777666455 17.78° C 36% 1015.5 hPa 0 mm - 714 W/m² -
1777666151 16.67° C 40% 1015.6 hPa 0 mm - 697 W/m² -
1777665848 17.22° C 38% 1015.4 hPa 0 mm - 713 W/m² -
1777665546 17.22° C 39% 1015.7 hPa 0 mm - 720 W/m² -
1777665241 16.67° C 41% 1015.5 hPa 0 mm - 761 W/m² -
1777664938 16.67° C 44% 1015.6 hPa 0 mm - 825 W/m² -
1777664634 16.11° C 45% 1015.6 hPa 0 mm - 803 W/m² -
1777664336 17.78° C 41% 1015.8 hPa 0 mm - 190 W/m² -
1777664029 17.78° C 41% 1015.7 hPa 0 mm - 842 W/m² -
1777663726 16.67° C 43% 1015.9 hPa 0 mm - 877 W/m² -
1777663423 17.22° C 43% 1015.9 hPa 0 mm - 912 W/m² -
1777663120 17.78° C 41% 1015.6 hPa 0 mm - 851 W/m² -
1777662817 16.67° C 45% 1015.9 hPa 0 mm - 858 W/m² -
1777662514 15° C 43% 1015.7 hPa 0 mm - 817 W/m² -
1777662210 15° C 46% 1015.5 hPa 0 mm - 315 W/m² -
1777661905 15° C 47% 1015.6 hPa 0 mm - 251 W/m² -

* Rain latest hour (hover to see other rain measurements)
** Current wind speed in m/s (hover to see current wind gust speed)